Location: Helensbirgh
(56.0153°N, 4.7348°W)
Time: 10:07:45
(UTC+01:00)

Envisat - Visible Passes

Search period start: 16 October 2019 00:00
Search period end: 26 October 2019 00:00
Orbit: 764 x 766 km, 98.1° (Epoch: 15 October)

Date Brightness Start Highest point End Pass type
(mag) Time Alt. Az. Time Alt. Az. Time Alt. Az.
16 Oct 3.5 19:22:39 10° S 19:27:43 67° WSW 19:32:48 10° NNW visible
16 Oct 6.1 21:05:21 10° WSW 21:07:45 13° W 21:10:10 10° NW visible
17 Oct 3.0 18:45:53 10° SSE 18:50:55 69° ENE 18:56:00 10° NNW visible
17 Oct 5.4 20:26:21 10° SW 20:30:27 24° W 20:34:35 10° NW visible
18 Oct 6.3 06:48:17 10° NE 06:50:58 14° E 06:53:38 10° ESE visible
18 Oct 4.3 19:48:30 10° S 19:53:21 43° W 19:58:13 10° NNW visible
19 Oct 3.2 19:11:20 10° SSE 19:16:25 80° WSW 19:21:33 10° NNW visible
19 Oct 6.0 20:53:13 10° WSW 20:56:18 16° W 20:59:24 10° NW visible
20 Oct 5.9 07:12:57 10° NE 07:16:51 22° E 07:20:44 10° SE visible
20 Oct 3.1 18:34:43 10° SE 18:39:41 58° ENE 18:44:42 10° N visible
20 Oct 5.1 20:14:41 10° SSW 20:19:04 29° W 20:23:29 10° NNW visible
21 Oct 6.5 06:37:44 10° ENE 06:39:30 12° E 06:41:16 10° E visible
21 Oct 3.9 19:37:03 10° S 19:42:00 52° W 19:47:00 10° NNW visible
22 Oct 3.0 19:00:04 10° SSE 19:05:09 87° ENE 19:10:17 10° NNW visible
22 Oct 5.7 20:41:18 10° SW 20:44:53 19° W 20:48:29 10° NW visible
23 Oct 6.0 07:01:57 10° NE 07:05:27 18° E 07:08:55 10° SE visible
23 Oct 4.7 20:03:05 10° SSW 20:07:41 34° W 20:12:20 10° NNW visible
24 Oct 3.5 19:25:40 10° S 19:30:42 63° WSW 19:35:47 10° NNW visible
24 Oct 6.1 21:08:45 10° WSW 21:10:48 12° W 21:12:51 10° WNW visible
25 Oct 5.5 07:26:55 10° NNE 07:31:16 27° E 07:35:35 10° SSE visible
25 Oct 3.0 18:48:50 10° SSE 18:53:53 74° ENE 18:58:59 10° NNW visible
25 Oct 5.4 20:29:30 10° SW 20:33:28 23° W 20:37:28 10° NW visible
